Notices

What's New in latest Release from April 7th, 2021:

- Updated Glossary, including Speed of Maximum Gust, and Total Hourly Precipitation

- Updated national and regional climate services offices contacts and prices information

- Addition of station inventory lists for 1981-2010, 1971-2000, and 1961-1990 Normals.

If you haven't already, please take our survey and provide feedback about our website: https://eccc.sondage-survey.ca/f/LanguageSelection.aspx?s=442ca660-fcf1-47c0-95a9-59707d6fd709

Hourly Data Report for February 05, 2012

HALIFAX STANFIELD INT'L A
NOVA SCOTIA

44°52'48.060" N
63°30'00.050" W
145.40 m
8202250
71395
YHZ

Download Data

Hourly Data (February 2012)
Hourly Data Report for February 5, 2012
TIME
LST
Temp Definition
°C
Dew Point Definition
°C
Rel Hum Definition
%
Precip. Amount Definition
mm

Wind Dir Definition
10's deg

Wind Spd Definition
km/h
Visibility Definition
km
Stn Press Definition
kPa
Hmdx Definition


Wind Chill Definition


Weather Definition


00:00 -11.7 -13.3 88   33 11 16.1 99.65   -18 Snow Showers
01:00 -11.8 -13.8 85   30 11 24.1 99.63   -18 Mainly Clear
02:00 -11.9 -13.1 91   31 9 24.1 99.61   -17 Snow
03:00 -12.2 -14.4 84   31 15 24.1 99.62   -19 Mostly Cloudy
04:00 -12.5 -14.7 84   33 17 24.1 99.62   -20 Snow
05:00 -12.7 -14.8 84   33 24 24.1 99.63   -22 Snow
06:00 -13.5 -15.3 86   33 17 24.1 99.63   -22 Mainly Clear
07:00 -13.7 -15.4 87   32 17 24.1 99.65   -22 Mainly Clear
08:00 -14.2 -16.2 85   32 17 19.3 99.69   -22 Snow Showers
09:00 -13.2 -15.5 83   32 22 19.3 99.70   -22 Snow Showers
10:00 -12.5 -15.9 76   33 22 19.3 99.69   -21 Snow Showers
11:00 -11.9 -16.3 70   31 24 19.3 99.67   -21 Snow Showers
12:00 -11.1 -15.4 71   29 17 19.3 99.63   -19 Snow Showers
13:00 -10.5 -14.9 70   31 22 19.3 99.55   -19 Snow Showers
14:00 -10.6 -15.2 69   32 15 24.1 99.50   -17 Snow Showers
15:00 -10.3 -15.0 68   31 20 24.1 99.48   -18 Mostly Cloudy
16:00 -10.1 -14.8 68   31 19 24.1 99.46   -18 Mostly Cloudy
17:00 -10.3 -14.4 72   30 19 24.1 99.50   -18 Snow Showers
18:00 -10.3 -13.8 75   29 13 24.1 99.54   -17 Snow Showers
19:00 -10.4 -13.7 77   28 11 24.1 99.56   -16 Snow Showers
20:00 -11.4 -14.0 81   26 9 24.1 99.55   -17 Mainly Clear
21:00 -12.7 -14.5 86   26 11 24.1 99.54   -19 Clear
22:00 -13.2 -14.9 87   25 11 24.1 99.55   -19 Clear
23:00 -13.8 -15.4 88   24 9 24.1 99.53   -19 Clear

Notes on Data Quality.

Legend

  • E = Estimated
  • M = Missing
  • NA = Not Available*
  • [empty] = Indicates an unobserved value
Date modified: